Главная страница
METAR-TAF:

METAR-TAF

Аэропорты :

Игл

Eagle, Аляска, США

широта: 64-46-35N, долгота: 141-09-03W, высота над уровнем моря: 268 м

Текущие метеонаблюдения

Эта сводка был подготовлена 36 минут назад, в 13:53 UTC
Штиль
Температура 8°C
Влажность 100%
Давление 1021 hPa
Видимость: 16.1 км
Сплошная облачность на высоте 7500 фута

METAR: PAEG 181353Z AUTO 00000KT 10SM OVC075 08/08 A3014 RMK AO2 SLP209 T00830078 TSNO

Время: 06:29 (14:29 UTC)


TAF: отсутствует

Метеонаблюдения и прогнозы для более 4000 аэропортов (сводки METAR и TAF).

Имеющиеся станции представлены на карте желтыми и красными точками.

Чтобы увидеть название станции, наведите на нее мышь.

Затем щелкните, чтобы увидеть метеонаблюдения и метеопрогнозы.

Управление картой: чтобы увеличить масштаб, щелкните зеленые кнопки с черным крестиком; чтобы уменьшить масштаб, щелкните зеленую кнопку с тире; для просмотра соседних карт щелкайте зеленые стрелки.


METAR-TAF: